Location: Peach Mountain Observatory
(42.3967°N, 83.9367°W)
Time: 01:47:53
(UTC-05:00)

S-56A Canister/Altair - Pass Details

Date: 02 February 2020
Orbit: 633 x 2499 km, 38.9° (Epoch: 20 February)

Event Time Altitude Azimuth Distance (km) Brightness Sun altitude
Rises 17:03:58 0° 225° (SW) 5,685 13.8 6.9°
Reaches altitude 10° 17:08:22 10° 219° (SW) 4,428 13.0 6.2°
Maximum altitude 17:18:37 40° 156° (SSE) 2,117 9.9 4.5°
Drops below altitude 10° 17:25:43 10° 90° (E) 3,072 10.1 3.3°
Sets 17:28:13 0° 82° (E) 3,817 10.5 2.9°
